カタログに戻る

ANNA 1B

運用中科学LEO
NORAD 446·PAYLOAD·🇺🇸 United States

打ち上げ Oct 31, 1962 から Cape Canaveral Space Force Station

Loading…

次のパス (今後24時間)

TLE

最新Source: Space-Track

元期: Sep 6, 2026, 05:33 UTC

1 00446U 62060A   26249.23170293 -.00000118  00000-0  15097-4 0  9995
2 00446  50.1417  62.2317 0069970 255.9922 275.2334 13.35365713114537

AllMySatでANNA 1Bをリアルタイム追跡

Download on the App Store